Home > Weather > Mexico City > Past weeks

Flag for Mexico Past Weather in Mexico City, Ciudad de México, Mexico — Yesterday and Last 2 Weeks

Now
75 °F

Scattered clouds.


Feels Like: 77 °F
Forecast: N/A
Wind: 12 mph from Northeast

Location: Mexico City / Licenci

Current Time: Jul 29, 2016 at 6:41:55 PM

Latest Report: Jul 29, 2016 at 3:45 PM


Visibility: 8 mi

Pressure: 29.73 "Hg (22.97 "Hg at 2241m altitude)

Humidity: 36%

Dew Point: 46 °F

Location of Mexico CityLocation

Past Weather in Mexico City — Graph

°F

Mexico City Temperature Yesterday

Maximum temperature yesterday: 70 °F (at 12:49 PM)
Minimum temperature yesterday: 55 °F (at 7:22 AM)
Average temperature yesterday: 62 °F

High & Low Weather Summary for the Past Weeks

 TemperatureHumidityPressure
High77 °F (Jul 16, 4:47 PM)94% (Jul 17, 8:45 PM)30.45 "Hg (Jul 17, 8:45 PM)
Low55 °F (Jul 15, 6:47 AM)27% (Jul 15, 4:47 PM)29.67 "Hg (Jul 25, 3:47 PM)
Average64 °F64%30.20 "Hg
* Reported Jul 14 3:48 PM — Jul 29 3:45 PM, Mexico City, Weather by CustomWeather, © 2016

Note: Actual official high and low records may vary slightly from our data, if they occured in-between our weather recording intervals... More about our weather records

Advertising

Mexico City Weather History for the Previous 24 Hours

Scroll right to see more
 ConditionsComfort  
Time TempWeatherWind HumidityBarometerVisibility
3:45 PM
Fri, Jul 29
75 °FScattered clouds.12 mph36%29.73 "Hg8 mi
2:45 PM75 °FScattered clouds.10 mph36%30.28 "Hg6 mi
1:45 PM73 °FScattered clouds.12 mph38%30.30 "Hg6 mi
12:47 PM72 °FPassing clouds.6 mph44%29.81 "Hg6 mi
11:47 AM68 °FPassing clouds.5 mph53%30.34 "Hg5 mi
10:52 AM66 °FPassing clouds.6 mph60%30.35 "Hg5 mi
9:49 AM63 °FScattered clouds.3 mph68%29.90 "Hg7 mi
8:46 AM61 °FScattered clouds.6 mph77%30.36 "Hg7 mi
6:50 AM59 °FPassing clouds.5 mph82%29.90 "Hg7 mi
4:45 AM57 °FPartly cloudy.6 mph82%30.33 "Hg8 mi
3:46 AM59 °FPartly cloudy.7 mph82%29.85 "Hg8 mi
2:54 AM59 °FPassing clouds.5 mph77%30.33 "Hg8 mi
1:54 AM61 °FPassing clouds.6 mph68%30.35 "Hg8 mi
12:53 AM61 °FPassing clouds.6 mph72%29.87 "Hg8 mi
11:52 PM
Thu, Jul 28
61 °FPassing clouds.8 mph72%30.37 "Hg8 mi
10:52 PM61 °FPartly cloudy.6 mph68%30.36 "Hg8 mi
9:50 PM61 °FPassing clouds.6 mph68%29.82 "Hg10 mi
6:48 PM61 °FBroken clouds.13 mph72%29.83 "Hg12 mi
Weather by CustomWeather, © 2016

See weather overviewHow to use our weather pages